Nederland, TX

4:06 PM CDT on July 24, 2016 (GMT -0500)
Southeast Texas Regional

Weather History for KBPT - February, 2013

Change the Weather History Date:

Sunday, February 10, 2013

  Actual Average Record
Temperature  
Mean Temperature 69 °F 55 °F  
Max Temperature 76 °F 64 °F 82 °F (1957)
Min Temperature 62 °F 46 °F 22 °F (1973)
Degree Days  
Heating Degree Days 0 11  
Month to date heating degree days 39 112  
Since 1 July heating degree days 823 1055  
Cooling Degree Days 4 1  
Month to date cooling degree days 6 4  
Year to date cooling degree days 29 15  
Growing Degree Days 18 (Base 50)    
Moisture  
Dew Point 64 °F    
Average Humidity 90    
Maximum Humidity 97    
Minimum Humidity 82    
Precipitation  
Precipitation 0.07 in 0.13 in 1.81 in (1923)
Month to date precipitation 0.97 1.34  
Year to date precipitation 9.19 6.60  
Snow  
Snow 0.00 in 0.00 in 0.00 in ()
Month to date snowfall 0.0 0.0  
Since 1 July snowfall 0.0 T  
Snow Depth 0.00 in    
Sea Level Pressure  
Sea Level Pressure 29.88 in    
Wind  
Wind Speed 12 mph (ESE)    
Max Wind Speed 26 mph    
Max Gust Speed 36 mph    
Visibility 9 miles    
Events Rain    
T = Trace of Precipitation, MM = Missing Value Source: NWS Daily Summary

Daily Weather History Graph

Daily Weather History Graph

Search for Another Location

Airport or City:

Trip Planner

Search our weather history database for the weather conditions in past years. The results will help you decide how hot, cold, wet, or windy it might be!

Date:

Astronomy

Feb. 10, 2013 Rise Set
Actual Time 6:59 AM CST 6:01 PM CST
Civil Twilight 6:35 AM CST 6:25 PM CST
Nautical Twilight 6:06 AM CST 6:54 PM CST
Astronomical Twilight 5:39 AM CST 7:22 PM CST
Moon 6:55 AM CST (2/10) 6:44 PM CST (2/10)
Length of Visible Light 11h 50m
Length of Day
11h 01m
New Moon, 0% of the Moon is Illuminated
Feb 10
New Moon
Feb 17
First Quarter
Feb 25
Full
Mar 4
Last Quarter
Mar 11
New

Hourly Weather History & Observations

Time (CST) Temp. Dew Point Humidity Pressure Visibility Wind Dir Wind Speed Gust Speed Precip Events Conditions
12:20 AM 66.2 °F 64.4 °F 94% 29.90 in 8.0 mi ESE 13.8 mph - N/A   Overcast
12:36 AM 66.2 °F 64.4 °F 94% 29.89 in 8.0 mi ESE 12.7 mph - N/A   Overcast
12:53 AM 66.0 °F 64.0 °F 93% 29.89 in 7.0 mi SE 12.7 mph 21.9 mph N/A   Overcast
1:53 AM 68.0 °F 66.0 °F 93% 29.89 in 7.0 mi SE 16.1 mph 23.0 mph N/A   Overcast
2:53 AM 68.0 °F 66.9 °F 96% 29.86 in 7.0 mi SSE 15.0 mph - N/A   Overcast
3:53 AM 68.0 °F 66.9 °F 96% 29.80 in 6.0 mi SE 19.6 mph 26.5 mph N/A   Overcast
4:29 AM 68.0 °F 66.2 °F 94% 29.84 in 4.0 mi SSE 17.3 mph 21.9 mph 0.00 in   Overcast
4:53 AM 69.1 °F 68.0 °F 96% 29.84 in 7.0 mi South 13.8 mph - 0.00 in   Overcast
5:13 AM 69.8 °F 66.2 °F 88% 29.80 in 8.0 mi SSE 19.6 mph 24.2 mph N/A   Overcast
5:53 AM 69.1 °F 68.0 °F 96% 29.84 in 8.0 mi South 10.4 mph - N/A   Overcast
6:42 AM 69.8 °F 66.2 °F 88% 29.82 in 10.0 mi South 19.6 mph 26.5 mph 0.00 in Rain Light Rain
6:53 AM 70.0 °F 66.9 °F 90% 29.82 in 10.0 mi South 18.4 mph 29.9 mph 0.00 in   Mostly Cloudy
7:53 AM 70.0 °F 68.0 °F 93% 29.83 in 8.0 mi South 25.3 mph 32.2 mph N/A   Mostly Cloudy
8:08 AM 69.8 °F 68.0 °F 94% 29.85 in 8.0 mi South 24.2 mph 32.2 mph N/A   Overcast
8:53 AM 72.0 °F 68.0 °F 87% 29.86 in 9.0 mi South 16.1 mph 21.9 mph N/A   Overcast
9:53 AM 73.0 °F 69.1 °F 87% 29.86 in 10.0 mi South 17.3 mph 25.3 mph N/A   Overcast
10:05 AM 73.4 °F 69.8 °F 88% 29.87 in 9.0 mi South 18.4 mph 26.5 mph N/A   Overcast
10:53 AM 73.9 °F 69.1 °F 85% 29.88 in 10.0 mi South 17.3 mph 29.9 mph N/A   Overcast
11:53 AM 73.9 °F 69.1 °F 85% 29.88 in 9.0 mi South 19.6 mph 27.6 mph N/A   Overcast
12:53 PM 75.9 °F 69.1 °F 79% 29.86 in 10.0 mi SSW 17.3 mph 27.6 mph N/A   Overcast
1:32 PM 68.0 °F 62.6 °F 83% 29.86 in 10.0 mi NW 10.4 mph 16.1 mph N/A   Overcast
1:53 PM 64.0 °F 60.1 °F 87% 29.86 in 10.0 mi NNW 5.8 mph 23.0 mph 0.00 in Rain Light Rain
2:09 PM 64.4 °F 60.8 °F 88% 29.85 in 9.0 mi NNW 5.8 mph - 0.00 in Rain Light Rain
2:53 PM 62.1 °F 59.0 °F 90% 29.86 in 6.0 mi North 6.9 mph - 0.04 in Rain Light Rain
3:53 PM 62.1 °F 59.0 °F 90% 29.88 in 10.0 mi North 8.1 mph - 0.03 in   Overcast
4:53 PM 63.0 °F 59.0 °F 87% 29.88 in 10.0 mi NNE 5.8 mph - 0.00 in   Overcast
5:53 PM 62.1 °F 57.9 °F 86% 29.89 in 10.0 mi NNE 5.8 mph - 0.00 in   Overcast
6:53 PM 63.0 °F 57.9 °F 84% 29.90 in 10.0 mi NNE 6.9 mph - N/A   Overcast
7:53 PM 63.0 °F 57.9 °F 84% 29.92 in 10.0 mi NE 5.8 mph - N/A   Overcast
8:53 PM 63.0 °F 59.0 °F 87% 29.96 in 10.0 mi North 5.8 mph - N/A   Overcast
9:53 PM 63.0 °F 59.0 °F 87% 29.96 in 10.0 mi NNE 4.6 mph - N/A   Overcast
10:31 PM 62.6 °F 59.0 °F 88% 29.96 in 10.0 mi NE 5.8 mph - N/A   Overcast
10:53 PM 63.0 °F 59.0 °F 87% 29.95 in 10.0 mi NE 5.8 mph - N/A   Overcast
11:09 PM 62.6 °F 59.0 °F 88% 29.95 in 10.0 mi NNE 6.9 mph - N/A   Overcast
11:53 PM 63.0 °F 59.0 °F 87% 29.96 in 10.0 mi NNE 5.8 mph - N/A   Overcast